Location: *
(55.6049°S, 142.1985°W)
Time: 07:54:32
(UTC+00:00)

Cosmos 1655 Rocket - Pass Details

Date: 12 May 2021
Orbit: 970 x 1007 km, 82.9° (Epoch: 13 June)

Event Time Altitude Azimuth Distance (km) Brightness Sun altitude
Rises 15:22:15 0° 192° (SSW) 3,774 6.9 -15.4°
Reaches altitude 10° 15:24:49 10° 190° (S) 2,821 6.2 -15.1°
Maximum altitude 15:31:21 77° 103° (ESE) 1,053 4.3 -14.2°
Drops below altitude 10° 15:37:48 10° 16° (NNE) 2,794 6.8 -13.3°
Sets 15:40:20 0° 15° (NNE) 3,735 7.5 -12.9°
